This is the latest recevied weather packets stored in our database for station/object DO2HBA-6. If no packets are shown the sender has not sent any weather packets the latest 10 day(s).
| Time | Temp. | Humidity | Pressure | Rain* | Wind** | Luminosity | Snow |
|---|---|---|---|---|---|---|---|
| 1777545443 | 13.89° C | 28% | 1028 hPa | 0 mm | - | - | - |
| 1777545142 | 13.89° C | 29% | 1028.2 hPa | 0 mm | - | - | - |
| 1777544842 | 13.89° C | 30% | 1028.2 hPa | 0 mm | - | - | - |
| 1777544542 | 13.89° C | 29% | 1028.1 hPa | 0 mm | - | - | - |
| 1777544241 | 13.89° C | 30% | 1028.2 hPa | 0 mm | - | - | - |
| 1777543941 | 13.33° C | 30% | 1028.2 hPa | 0 mm | - | - | - |
| 1777543641 | 12.78° C | 30% | 1028.1 hPa | 0 mm | - | - | - |
| 1777543341 | 13.33° C | 29% | 1028.1 hPa | 0 mm | - | - | - |
| 1777543040 | 13.33° C | 31% | 1028.2 hPa | 0 mm | - | - | - |
| 1777542740 | 12.22° C | 32% | 1028.2 hPa | 0 mm | - | - | - |
| 1777542440 | 12.22° C | 31% | 1028.2 hPa | 0 mm | - | - | - |
| 1777542139 | 12.22° C | 31% | 1028.3 hPa | 0 mm | - | - | - |
| 1777541839 | 12.22° C | 30% | 1028.3 hPa | 0 mm | - | - | - |
| 1777541539 | 12.22° C | 31% | 1028.4 hPa | 0 mm | - | - | - |
| 1777541239 | 12.22° C | 31% | 1028.4 hPa | 0 mm | - | - | - |
| 1777540938 | 11.67° C | 32% | 1028.5 hPa | 0 mm | - | - | - |
| 1777540638 | 11.67° C | 32% | 1028.4 hPa | 0 mm | - | - | - |
| 1777540338 | 11.11° C | 32% | 1028.5 hPa | 0 mm | - | - | - |
| 1777540037 | 11.11° C | 32% | 1028.6 hPa | 0 mm | - | - | - |
| 1777539737 | 11.11° C | 33% | 1028.6 hPa | 0 mm | - | - | - |
| 1777539437 | 11.11° C | 33% | 1028.7 hPa | 0 mm | - | - | - |
| 1777539137 | 10.56° C | 34% | 1028.6 hPa | 0 mm | - | - | - |
| 1777538836 | 10.56° C | 34% | 1028.6 hPa | 0 mm | - | - | - |
| 1777538536 | 10° C | 35% | 1028.7 hPa | 0 mm | - | - | - |
| 1777538236 | 9.44° C | 35% | 1028.7 hPa | 0 mm | - | - | - |
* Rain latest hour (hover to see other rain measurements)
** Current wind speed in m/s (hover to see current wind gust speed)